Tracking 18945 objects as of 21-Jan-2018
HD Live streaming from Space Station
objects crossing your sky now

SCOUT X-1 DEB

Track SCOUT X-1 DEB now!
10-day predictions


NORAD ID: 3927
Int'l Code: 1961-004F
Perigee: 555.0 km
Apogee: 1,262.3 km
Inclination: 38.9 °
Period: 103.0 minutes
Semi major axis: 7279 km
RCS: 0.0548 m2 (small)
Launch date: February 16, 1961
Source: United States (US)
Launch site: WALLOPS ISLAND (WLPIS)

Note: This is SATELLITE DEBRIS
aabbcc
Your satellite tracking list
Your tracking list is empty




NASA's NSSDC Master Catalog

Two Line Element Set (TLE):
1  3927U 61004F   18019.95922246 +.00000105 +00000-0 +47781-4 0  9997
2  3927 038.9287 241.8753 0485768 278.0162 076.5749 13.97771035693755
Source of the keplerian elements: AFSPC